Tracking 19149 objects as of 22-Apr-2018
HD Live streaming from Space Station
objects crossing your sky now

FENGYUN 1C DEB

Track FENGYUN 1C DEB now!
10-day predictions


NORAD ID: 29769
Int'l Code: 1999-025BK
Perigee: 819.7 km
Apogee: 965.4 km
Inclination: 99.2 °
Period: 102.7 minutes
Semi major axis: 7263 km
RCS: 0.0118 m2 (small)
Launch date: May 10, 1999
Source: People's Republic of China (PRC)
Launch site: Taiyaun Space Center, China (TSC)

Note: This is SATELLITE DEBRIS
aabbcc
Your satellite tracking list
Your tracking list is empty




NASA's NSSDC Master Catalog

Two Line Element Set (TLE):
1 29769U 99025BK  18112.41827372  .00000471  00000-0  32240-3 0  9991
2 29769  99.1770  95.1896 0100340 313.4880  45.7975 14.02423171574942
Source of the keplerian elements: AFSPC